Regional Weather Roundup
Issued by NWS

Home | Current Version | Previous Version | Graphics & Text | Print | Product List | Glossary On
Versions: 1 2 3 4 5 6 7 8 9 10 11 12 13 14 15 16 17 18 19 20 21 22 23 24 25 26 27 28 29 30 31 32 33 34 35 36 37 38 39 40 41 42 43 44 45 46 47 48 49 50
000
ASUS43 KOAX 110802
RWRNE

WEATHER ROUNDUP FOR NEBRASKA
NATIONAL WEATHER SERVICE OMAHA NE
300 AM CDT FRI JUL 11 2014

NOTES: SATELLITE DATA IS BEING USED TO AUGMENT CLOUD COVER ABOVE
       12000 FEET.
       "FAIR" INDICATES FEW OR NO CLOUDS BELOW 12,000 FEET WITH NO
       SIGNIFICANT WEATHER AND/OR OBSTRUCTIONS TO VISIBILITY.

  * THESE STATIONS DO NOT REPORT WEATHER SUCH AS RAIN...SNOW OR FOG.

NEZ001>004-019>022-054>056-110900-
NEBRASKA PANHANDLE

CITY           SKY/WX    TMP DP  RH WIND       PRES   REMARKS
SCOTTSBLUFF    CLOUDY    68  61  78 SE7       30.01F
ALLIANCE       RAIN      65  63  93 MISG      30.00R
CHADRON        CLOUDY    68  64  87 CALM      29.96F
KIMBALL        CLOUDY    62  60  94 CALM      30.05F
SIDNEY         CLOUDY    65  59  81 NE5       30.04S
$$

NEZ057>060-069>072-079>082-110900-
SOUTHWEST NEBRASKA

CITY           SKY/WX    TMP DP  RH WIND       PRES   REMARKS
NORTH PLATTE   LGT RAIN  68  63  84 N10       30.02R
IMPERIAL       MOCLDY    72  67  84 NE10      29.97F
LEXINGTON      MOCLDY    73  69  87 S14       29.95R
MCCOOK         PTCLDY    71  68  90 E6        29.93S
OGALLALA       LGT RAIN  65  63  90 NE10G18   30.00R
$$

NEZ005>010-023>029-035>040-094-110900-
NORTH CENTRAL NEBRASKA

CITY           SKY/WX    TMP DP  RH WIND       PRES   REMARKS
VALENTINE      MOCLDY    69  64  84 SW10      29.93R
AINSWORTH      MOCLDY    71  69  93 S13       29.92S
BROKEN BOW     CLOUDY    72  69  90 NW8       30.02R
O`NEILL        CLOUDY    72  64  75 S9        29.95R
ORD            LGT RAIN  70  66  87 S8        29.96R
THEDFORD       CLOUDY    70  65  86 SW21      30.02R THUNDER
$$

NEZ041-046>049-061>064-073>077-083>087-110900-
SOUTH CENTRAL NEBRASKA

CITY           SKY/WX    TMP DP  RH WIND       PRES   REMARKS
GRAND ISLAND   PTCLDY    70  65  84 S10       29.95F
AURORA         PTCLDY    71  66  84 S10       29.95S
HASTINGS       CLEAR     71  64  78 S14G20    29.94F
HEBRON         CLEAR     73  65  76 SE12      29.95F
HOLDREGE       CLOUDY    71  65  82 S15G21    29.94S
KEARNEY *      CLOUDY    70  64  83 S12       29.95S
YORK           CLOUDY    68  64  88 S10       29.96S
$$

NEZ011>018-030>034-042>045-110900-
NORTHEAST NEBRASKA

CITY           SKY/WX    TMP DP  RH WIND       PRES   REMARKS
NORFOLK        CLOUDY    72  63  73 SE8       29.97S
ALBION         CLOUDY    70  63  78 S8        29.97S
BLAIR          CLEAR     71  64  79 S14G20    29.99R
TEKAMAH        PTCLDY    73  65  75 S10       29.99R
WAYNE          CLOUDY    72  66  82 S8        29.98S
$$

NEZ050>053-065>068-078-088>093-110900-
SOUTHEAST NEBRASKA

CITY           SKY/WX    TMP DP  RH WIND       PRES   REMARKS
LINCOLN        PTCLDY    72  65  78 S10       29.97F
OMAHA EPPLEY   PTCLDY    72  65  78 S15       29.99S
BEATRICE       PTCLDY    69  64  86 S12       29.97F
FALLS CITY     CLEAR     67  65  93 SE6       30.00F
NEBRASKA CITY  CLEAR     68  65  88 S12G18    30.00F
PLATTSMOUTH    CLEAR     70  65  84 SE8       30.00S
$$

NEZ044-045-051>053-067-110900-
OMAHA AREA

CITY           SKY/WX    TMP DP  RH WIND       PRES   REMARKS
OMAHA EPPLEY   PTCLDY    72  65  78 S15       29.99S
BLAIR          CLEAR     71  64  79 S14G20    29.99R
MILLARD        CLEAR     71  66  84 SE7       29.99S
OFFUTT AFB     CLEAR     69  68  99 SE9       30.00S
PLATTSMOUTH    CLEAR     70  65  84 SE8       30.00S
WAHOO          FAIR      71  65  83 S10       29.97F
$$



USA.gov is the U.S. government's official web portal to all federal, state and local government web resources and services.